When you browse on this site, cookies collect data to enhance your experience and personalize the content and advertising you see.
Visit our Privacy Policy to learn more. By continuing to use the site, you agree to this use of cookies and data.

Hourly Weather Sidi Bu-l-Abbas

Today, 12 August, Wednesday

Time Temperature Precipitation Wind Pressure Humidity
00:00 +25°C° 0 mm 4 mps 718 mmHg 80%
01:00 +25°C° 0 mm 3 mps 718 mmHg 80%
02:00 +25°C° 0 mm 2 mps 718 mmHg 80%
03:00 +25°C° 0 mm 1 mps 718 mmHg 80%
04:00 +25°C° 0 mm 1 mps 719 mmHg 78%
05:00 +25°C° 0 mm 1 mps 719 mmHg 76%
06:00 +25°C° 0 mm 1 mps 719 mmHg 73%
07:00 +27°C° 0 mm 1 mps 720 mmHg 66%
08:00 +28°C° 0 mm 2 mps 720 mmHg 58%
09:00 +30°C° 0 mm 2 mps 720 mmHg 50%
10:00 +31°C° 0 mm 3 mps 720 mmHg 46%
11:00 +34°C° 0 mm 4 mps 720 mmHg 41%
12:00 +35°C° 0 mm 6 mps 720 mmHg 37%
13:00 +35°C° 0 mm 6 mps 720 mmHg 39%
14:00 +34°C° 0 mm 6 mps 719 mmHg 41%
15:00 +34°C° 0 mm 7 mps 719 mmHg 43%
16:00 +32°C° 0 mm 5 mps 719 mmHg 44%
17:00 +30°C° 0 mm 4 mps 719 mmHg 46%
18:00 +29°C° 0 mm 3 mps 719 mmHg 48%
19:00 +28°C° 0 mm 2 mps 719 mmHg 50%
20:00 +27°C° 0 mm 1 mps 719 mmHg 53%
21:00 +26°C° 0 mm 1 mps 720 mmHg 55%
22:00 +26°C° 0 mm 1 mps 720 mmHg 56%
23:00 +26°C° 0 mm 1 mps 720 mmHg 56%

Tomorrow, 13 August, Thursday

Time Temperature Precipitation Wind Pressure Humidity
00:00 +26°C° 0 mm 1 mps 720 mmHg 57%
01:00 +26°C° 0 mm 1 mps 720 mmHg 58%
02:00 +25°C° 0 mm 1 mps 720 mmHg 60%
03:00 +25°C° 0 mm 1 mps 720 mmHg 61%
04:00 +25°C° 0 mm 1 mps 720 mmHg 62%
05:00 +23°C° 0 mm 0 mps 720 mmHg 62%
06:00 +23°C° 0 mm 0 mps 720 mmHg 63%
07:00 +27°C° 0 mm 1 mps 720 mmHg 55%
08:00 +29°C° 0 mm 1 mps 720 mmHg 47%
09:00 +31°C° 0 mm 2 mps 721 mmHg 39%
10:00 +34°C° 0 mm 2 mps 721 mmHg 35%
11:00 +36°C° 0 mm 3 mps 721 mmHg 30%
12:00 +38°C° 0 mm 4 mps 721 mmHg 26%
13:00 +38°C° 0 mm 4 mps 720 mmHg 27%
14:00 +38°C° 0 mm 4 mps 720 mmHg 27%
15:00 +38°C° 0 mm 4 mps 720 mmHg 28%
16:00 +36°C° 0 mm 3 mps 720 mmHg 31%
17:00 +34°C° 0 mm 3 mps 720 mmHg 34%
18:00 +31°C° 0 mm 2 mps 719 mmHg 38%
19:00 +30°C° 0 mm 2 mps 720 mmHg 42%
20:00 +29°C° 0 mm 2 mps 720 mmHg 46%
21:00 +28°C° 0 mm 1 mps 721 mmHg 51%
22:00 +28°C° 0 mm 1 mps 721 mmHg 48%
23:00 +29°C° 0 mm 1 mps 721 mmHg 45%

Day after tomorrow, 14 August, Friday

Time Temperature Precipitation Wind Pressure Humidity
00:00 +29°C° 0 mm 1 mps 721 mmHg 42%
01:00 +29°C° 0 mm 1 mps 720 mmHg 42%
02:00 +29°C° 0 mm 2 mps 720 mmHg 42%
03:00 +29°C° 0 mm 2 mps 720 mmHg 42%
04:00 +28°C° 0 mm 2 mps 720 mmHg 45%
05:00 +27°C° 0 mm 1 mps 720 mmHg 49%
06:00 +26°C° 0 mm 1 mps 720 mmHg 53%
07:00 +29°C° 0 mm 2 mps 720 mmHg 43%
08:00 +33°C° 0 mm 3 mps 721 mmHg 34%
09:00 +36°C° 0 mm 3 mps 721 mmHg 24%
10:00 +38°C° 0 mm 4 mps 721 mmHg 23%
11:00 +40°C° 0 mm 4 mps 721 mmHg 21%
12:00 +41°C° 0 mm 5 mps 721 mmHg 19%
13:00 +41°C° 0 mm 4 mps 720 mmHg 20%
14:00 +41°C° 0 mm 4 mps 720 mmHg 21%
15:00 +41°C° 0 mm 4 mps 719 mmHg 22%
16:00 +39°C° 0 mm 6 mps 719 mmHg 25%
17:00 +36°C° 0 mm 7 mps 719 mmHg 28%
18:00 +34°C° 0 mm 8 mps 719 mmHg 31%
19:00 +33°C° 0.1 mm 7 mps 720 mmHg 35%
20:00 +32°C° 0.1 mm 7 mps 720 mmHg 38%
21:00 +30°C° 0.1 mm 6 mps 721 mmHg 41%
22:00 +32°C° 0 mm 5 mps 721 mmHg 38%
23:00 +32°C° 0 mm 4 mps 720 mmHg 34%

15 August, Saturday

Time Temperature Precipitation Wind Pressure Humidity
00:00 +33°C° 0 mm 4 mps 720 mmHg 31%
01:00 +31°C° 0 mm 3 mps 720 mmHg 35%
02:00 +30°C° 0 mm 2 mps 719 mmHg 39%
03:00 +29°C° 0 mm 2 mps 719 mmHg 44%
04:00 +28°C° 0 mm 2 mps 719 mmHg 48%
05:00 +27°C° 0 mm 2 mps 719 mmHg 52%
06:00 +26°C° 0 mm 2 mps 719 mmHg 56%
07:00 +27°C° 0 mm 2 mps 719 mmHg 49%
08:00 +29°C° 0 mm 3 mps 719 mmHg 41%
09:00 +31°C° 0 mm 3 mps 720 mmHg 34%
10:00 +33°C° 0 mm 4 mps 720 mmHg 30%
11:00 +35°C° 0 mm 4 mps 720 mmHg 27%
12:00 +36°C° 0 mm 4 mps 720 mmHg 24%
13:00 +36°C° 0 mm 5 mps 719 mmHg 25%
14:00 +36°C° 0 mm 5 mps 719 mmHg 26%
15:00 +35°C° 0 mm 6 mps 718 mmHg 27%
16:00 +34°C° 0 mm 5 mps 718 mmHg 29%
17:00 +32°C° 0 mm 4 mps 718 mmHg 32%
18:00 +30°C° 0 mm 3 mps 717 mmHg 34%
19:00 +29°C° 0 mm 2 mps 718 mmHg 36%
20:00 +28°C° 0 mm 2 mps 718 mmHg 37%
21:00 +28°C° 0 mm 1 mps 718 mmHg 38%
22:00 +27°C° 0 mm 1 mps 718 mmHg 38%
23:00 +27°C° 0 mm 1 mps 718 mmHg 38%

16 August, Sunday

Time Temperature Precipitation Wind Pressure Humidity
00:00 +27°C° 0 mm 1 mps 718 mmHg 38%
01:00 +26°C° 0 mm 1 mps 718 mmHg 38%
02:00 +25°C° 0 mm 1 mps 717 mmHg 38%
03:00 +25°C° 0 mm 1 mps 717 mmHg 39%
04:00 +25°C° 0 mm 1 mps 717 mmHg 39%
05:00 +25°C° 0 mm 1 mps 718 mmHg 39%
06:00 +25°C° 0 mm 1 mps 718 mmHg 39%
07:00 +27°C° 0 mm 2 mps 719 mmHg 33%
08:00 +29°C° 0 mm 2 mps 719 mmHg 27%
09:00 +31°C° 0 mm 2 mps 719 mmHg 21%
10:00 +33°C° 0 mm 3 mps 719 mmHg 20%
11:00 +34°C° 0 mm 4 mps 719 mmHg 20%
12:00 +35°C° 0 mm 5 mps 719 mmHg 20%
13:00 +35°C° 0 mm 5 mps 719 mmHg 21%
14:00 +35°C° 0 mm 5 mps 718 mmHg 23%
15:00 +34°C° 0 mm 5 mps 717 mmHg 24%
16:00 +33°C° 0 mm 4 mps 717 mmHg 27%
17:00 +32°C° 0 mm 4 mps 717 mmHg 29%
18:00 +30°C° 0 mm 4 mps 717 mmHg 31%
19:00 +29°C° 0 mm 3 mps 717 mmHg 34%
20:00 +28°C° 0 mm 2 mps 718 mmHg 36%
21:00 +27°C° 0 mm 1 mps 718 mmHg 38%
22:00 +26°C° 0 mm 1 mps 718 mmHg 38%
23:00 +26°C° 0 mm 2 mps 718 mmHg 38%

17 August, Monday

Time Temperature Precipitation Wind Pressure Humidity
00:00 +26°C° 0 mm 2 mps 718 mmHg 38%
01:00 +25°C° 0 mm 2 mps 718 mmHg 37%
02:00 +25°C° 0 mm 1 mps 718 mmHg 36%
03:00 +24°C° 0 mm 1 mps 718 mmHg 35%
04:00 +24°C° 0 mm 1 mps 718 mmHg 34%
05:00 +25°C° 0 mm 1 mps 718 mmHg 33%
06:00 +25°C° 0 mm 1 mps 719 mmHg 33%
07:00 +27°C° 0 mm 2 mps 719 mmHg 28%
08:00 +28°C° 0 mm 3 mps 719 mmHg 24%
09:00 +30°C° 0 mm 3 mps 720 mmHg 20%
10:00 +32°C° 0 mm 4 mps 720 mmHg 20%
11:00 +34°C° 0 mm 4 mps 720 mmHg 20%
12:00 +35°C° 0 mm 4 mps 720 mmHg 20%
13:00 +35°C° 0 mm 5 mps 719 mmHg 20%
14:00 +35°C° 0 mm 5 mps 719 mmHg 21%
15:00 +35°C° 0 mm 6 mps 718 mmHg 22%
16:00 +34°C° 0 mm 5 mps 718 mmHg 24%
17:00 +33°C° 0 mm 4 mps 718 mmHg 26%
18:00 +30°C° 0 mm 3 mps 718 mmHg 29%
19:00 +29°C° 0 mm 2 mps 719 mmHg 32%
20:00 +28°C° 0 mm 1 mps 719 mmHg 36%
21:00 +24°C° 0 mm 0 mps 719 mmHg 40%
22:00 +24°C° 0 mm 0 mps 719 mmHg 40%
23:00 +23°C° 0 mm 0 mps 719 mmHg 40%
Show more